星链-2643 (STARLINK-2643 )

导读

STARLINK-2643是美国SpaceX公司星链(Starlink)星座中的一颗卫星,于2021年5月4日发射升空。作为全球卫星互联网项目的组成部分,它运行在近地轨道,依托Ku/Ka波段通信与相控阵技术,为全球偏远地区提供低延迟高速宽带服务。卫星采用平板设计,配备氪霍尔推进器,具备自主避撞能力,服役结束后会再入大气层焚毁。目前数千颗星链卫星已完成部署,服务覆盖全球六十余个国家和地区,持续推动全球卫星互联网的普及。

Basic Information
目录编号:
48367
目录名称:
STARLINK-2643
国际标识:
2021-038Q
轨道中心:
EARTH
卫星名称:
星链-2643
卫星全名:
星链-2643 (STARLINK-2643 )
卫星状态:
在轨 (已飞行1949 天)
发射日期:
2021-05-04 UTC
国别 :
美国 (US)
星等 :
--
Orbit Information
数据来源 国际轨道数据 AOE轨道数据
星历时间 2026-09-04T07:14:06+0800
10小时前
查看轨道信息
2026-09-04T00:00:00+0800
18小时前
查看轨道信息
半长轴 6848.879km 6848.822km
偏心率 0.0001477 0.0001269
轨道倾角 53.161° 53.158°
近地点辐角 92.036° 70.843°
升交点赤经 235.747° 237.151°
平近点角 268.081° 66.066°
近地点 469.73km 469.815km
远地点 471.754km 471.555km
周期 94.013分钟 94.012分钟
每日圈数 15.316994 15.317185
Detailed Information
固有亮度:
5
最大亮度:
2.5
卫星平台:
Starlink V1.0
覆盖范围:
全球
运营商:
太空探索技术公司
运营商所在国:
美国
制造商(研发单位):
太空探索技术公司
制造商所在国:
美国
使用方式:
暂无
Satellite Introduction
星链(Starlink)计划是由太空探索技术公司(SpaceX)提出的一个巨型低轨卫星互联网星座项目,计划在2019年至2024年间在太空搭建由约1.2万颗卫星组成的“星链”网络,其中1584颗将部署在地球上空550千米处的近地轨道,并从2020年开始工作。该卫星仍在工作。
2D Orbit Map
3D Orbit Map
Orbit Altitude Analysis Chart
Orbit Inclination Analysis Chart
Orbit Comprehensive Analysis Chart
View Comprehensive Chart
Conjunction Data List
Event ID Objects TCA Miss Dist (km) Collision Risk Probability Collision Risk Index (CRI) Action
CDM_260904-164604-704104-836721
2026-09-04T
16:46:19+0000
0.408 km
远距离
2.49742E-4 高风险 0.83
CDM_260905-044004-836706-770021
2026-09-05T
04:40:48+0000
2.909 km
极远距离
1.319465E-6 低风险 0.37
CDM_260904-102504-836706-933521
2026-09-04T
10:25:12+0000
2.951 km
极远距离
9.353505E-7 极低风险 0.34